Location: Wellington
(41.3000°S, 174.7830°E)
Time: 09:49:57
(UTC+13:00)

H-2A R/B - Pass Details

Date: 24 January 2019
Orbit: 261 x 32959 km, 27.9° (Epoch: 17 February)

Event Time Altitude Azimuth Distance (km) Brightness Sun altitude
Rises 22:05:47 0° 324° (NW) 2,424 4.6 -12.8°
Reaches altitude 10° 22:07:28 10° 344° (NNW) 1,986 3.9 -13.0°
Maximum altitude 22:10:53 22° 37° (NE) 2,273 3.8 -13.5°
Drops below altitude 10° 22:20:35 10° 80° (E) 6,191 6.1 -14.9°
Sets 22:34:49 0° 89° (E) 11,555 7.6 -16.8°
